Regional Weather Roundup
Issued by NWS

Home | Current Version | Previous Version | Graphics & Text | Print | Product List | Glossary On
Versions: 1 2 3 4 5 6 7 8 9 10 11 12 13 14 15 16 17 18 19 20 21 22 23 24 25 26 27 28 29 30 31 32 33 34 35 36
000
ASUS45 KBOI 220910
RWRID
WEATHER ROUNDUP FOR IDAHO
NATIONAL WEATHER SERVICE BOISE ID
300 AM MDT WED OCT 22 2014

NOTE: "FAIR" INDICATES FEW OR NO CLOUDS BELOW 12000 FEET
WITH NO SIGNIFICANT WEATHER AND/OR OBSTRUCTIONS TO VISIBILITY

IDZ012-014-221000-
SOUTHWEST IDAHO


CITY           SKY/WX    TMP DP  RH WIND       PRES   REMARKS
BOISE          CLEAR     45  38  76 SE10      30.08R
CALDWELL       CLEAR     41  30  65 SE7       30.09S
MOUNTAIN HOME  CLOUDY    39  38  99 E7        30.10R WCI  34
$$

IDZ016-017-221000-
SOUTHCENTRAL IDAHO


CITY           SKY/WX    TMP DP  RH WIND       PRES   REMARKS
BURLEY         CLEAR     36  29  75 SW5       30.11R WCI  32
JEROME         CLEAR     36  31  82 E8        30.12R WCI  30
TWIN FALLS     CLEAR     42  31  64 S12       30.11R
$$

IDZ019>023-221000-
SOUTHEAST IDAHO


CITY           SKY/WX    TMP DP  RH WIND       PRES   REMARKS
IDAHO FALLS    PTCLDY    36  31  82 SW6       30.13R WCI  31
POCATELLO      CLEAR     33  29  85 CALM      30.13R
REXBURG        MOCLDY    40  32  73 SW5       30.12R
$$

IDZ006-010-011-018-031-032-221000-
CENTRAL IDAHO MOUNTAINS


CITY           SKY/WX    TMP DP  RH WIND       PRES   REMARKS
MCCALL         CLOUDY    36  35  96 CALM      30.09R
HAILEY         CLEAR     32  28  86 NW8       30.14S WCI  25
STANLEY          N/A     30  29  96 CALM      30.14S
SALMON         PTCLDY   N/A N/A N/A MISG        N/A
CHALLIS        CLEAR     30  29  96 CALM      30.13R
$$

IDZ002-004-006-007-026-221000-
NORTHERN IDAHO


CITY           SKY/WX    TMP DP  RH WIND       PRES   REMARKS
LEWISTON       PTCLDY    45  38  76 SE7       30.00S
LOWELL           N/A     46  43  89 CALM      30.10S
COEUR D`ALENE  MOCLDY    45  41  87 S6        29.99R
MULLAN PASS    CLOUDY    33  33 100 S6        30.01F WCI  28
$$



USA.gov is the U.S. government's official web portal to all federal, state and local government web resources and services.